World > North America > United States > New York

Hourly Preston Hlow, NY Regional Weather

Feedback E-mail the Weather

Quick WX

Preston Hlow, NY Weather Maps

°F °C°F °C
Preston Hlow Weather Map
UTC Time: 6/27/2022, 21:22
Your Time:

Preston Hlow, NY Regional Weather

Expires:202206272200;;294470
ASUS41 KALY 272110
RWRALY

NEW YORK STATE HOURLY WEATHER ROUNDUP
NATIONAL WEATHER SERVICE ALBANY NY
500 PM EDT MON JUN 27 2022

NOTE: "FAIR" INDICATES FEW OR NO CLOUDS BELOW 12,000 FEET WITH NO
SIGNIFICANT WEATHER AND/OR NO OBSTRUCTIONS TO VISIBILITY.


NYZ032-033-038>043-046>054-057>066-NYZ062>081-082-084-272200-
EAST

  
CITY           SKY/WX    TMP DP  RH WIND       PRES   REMARKS
ALBANY         PTSUNNY   77  49  37 W13G23    29.94S                  
GLENS FALLS    MOSUNNY   77  49  37 W9G18     29.90R                  
POUGHKEEPSIE   CLOUDY    79  67  66 E7        29.89F                  
NEWBURGH       PTSUNNY   79  61  53 NW10      29.92S                  
MONTGOMERY     CLOUDY    76  58  53 NW10      29.91F                  
WHITE PLAINS   DRIZZLE   73  72  96 S3        29.92S                  
ISLIP          LGT RAIN  71  71 100 SW8       29.93S FOG              
NEW YORK CITY  LGT RAIN  74  65  73 E3        29.91F                  
CENTRAL PARK   CLOUDY    70  67  90 CALM      29.95S                  
$$


SKY/WX - Weather  TMP - Temperature  DP - Dew Point  RH - Humidity
WIND - Wind Direction/Speed PRES - Barometric Pressure VSB - Visibility
WCI - Wind Chill Index E13G22 Wind - East Wind 13 mph/Gusts of 22 mph

Trending Headlines

Preston Hlow Radar Loop



Preston Hlow Quick Facts


National Two Day Weather Forecast


E-mail the Preston Hlow Weather Forecast

Voice your opinion or tell us about page issues...